Time,TemperatureF,DewpointF,PressureIn,WindDirection,WindDirectionDegrees,WindSpeedMPH,WindSpeedGustMPH,Humidity,HourlyPrecipIn,Conditions,Clouds,dailyrainin,SoftwareType,DateUTC
2013-08-30 00:00:00,61.3,58.3,29.99,NNW,347,1.0,1.0,90,0.00,,,0.00,Wunderground v.1.15,2013-08-30 04:00:00,
2013-08-30 00:10:00,61.1,58.5,29.98,NNE,18,1.0,1.0,91,0.00,,,0.00,Wunderground v.1.15,2013-08-30 04:10:00,
2013-08-30 00:20:00,60.6,58.0,29.98,NNW,328,0.0,37.0,91,0.00,,,0.00,Wunderground v.1.15,2013-08-30 04:20:00,
2013-08-30 00:30:00,60.2,57.9,29.98,North,8,0.0,37.0,92,0.00,,,0.00,Wunderground v.1.15,2013-08-30 04:30:00,
2013-08-30 00:40:00,60.0,58.0,29.97,North,350,0.0,37.0,93,0.00,,,0.00,Wunderground v.1.15,2013-08-30 04:40:00,
2013-08-30 00:50:00,59.7,58.0,29.97,NNE,26,0.0,37.0,94,0.00,,,0.00,Wunderground v.1.15,2013-08-30 04:50:00,
2013-08-30 01:00:00,59.6,57.9,29.97,NNW,348,0.0,37.0,94,0.00,,,0.00,Wunderground v.1.15,2013-08-30 05:00:00,
2013-08-30 01:10:00,59.5,58.1,29.97,North,356,0.0,37.0,95,0.00,,,0.00,Wunderground v.1.15,2013-08-30 05:10:00,
2013-08-30 01:20:00,59.6,58.2,29.97,North,350,1.0,1.0,95,0.00,,,0.00,Wunderground v.1.15,2013-08-30 05:20:00,
2013-08-30 01:30:00,59.5,58.1,29.97,NW,320,1.0,1.0,95,0.00,,,0.00,Wunderground v.1.15,2013-08-30 05:30:00,
2013-08-30 01:40:00,59.8,58.7,29.96,NNW,328,2.0,2.0,96,0.00,,,0.00,Wunderground v.1.15,2013-08-30 05:40:00,
2013-08-30 01:50:00,60.2,58.8,29.96,NNE,18,2.0,2.0,95,0.00,,,0.00,Wunderground v.1.15,2013-08-30 05:50:00,
2013-08-30 02:00:00,60.3,58.9,29.96,North,7,0.0,37.0,95,0.00,,,0.00,Wunderground v.1.15,2013-08-30 06:00:00,
2013-08-30 02:10:00,60.4,59.0,29.96,NW,311,0.0,37.0,95,0.00,,,0.00,Wunderground v.1.15,2013-08-30 06:10:00,
2013-08-30 02:20:00,60.6,59.2,29.96,NNE,17,0.0,37.0,95,0.00,,,0.00,Wunderground v.1.15,2013-08-30 06:20:00,
2013-08-30 02:30:00,61.0,59.6,29.96,NW,315,1.0,1.0,95,0.00,,,0.00,Wunderground v.1.15,2013-08-30 06:30:00,
2013-08-30 02:40:00,61.2,59.5,29.96,NNW,348,1.0,37.0,94,0.00,,,0.00,Wunderground v.1.15,2013-08-30 06:40:00,
2013-08-30 02:50:00,61.3,59.3,29.96,NNE,24,1.0,1.0,93,0.00,,,0.00,Wunderground v.1.15,2013-08-30 06:50:00,
2013-08-30 03:00:00,61.4,59.4,29.95,North,359,1.0,1.0,93,0.00,,,0.00,Wunderground v.1.15,2013-08-30 07:00:00,
2013-08-30 03:10:00,61.5,59.2,29.95,NNE,33,1.0,37.0,92,0.00,,,0.00,Wunderground v.1.15,2013-08-30 07:10:00,
2013-08-30 03:20:00,61.7,59.0,29.95,North,356,2.0,2.0,91,0.00,,,0.00,Wunderground v.1.15,2013-08-30 07:20:00,
2013-08-30 03:30:00,61.8,58.8,29.94,NNW,338,1.0,1.0,90,0.00,,,0.00,Wunderground v.1.15,2013-08-30 07:30:00,
2013-08-30 03:40:00,61.9,58.9,29.94,North,359,3.0,3.0,90,0.00,,,0.00,Wunderground v.1.15,2013-08-30 07:40:00,
2013-08-30 03:50:00,61.8,58.8,29.94,North,356,1.0,1.0,90,0.00,,,0.00,Wunderground v.1.15,2013-08-30 07:50:00,
2013-08-30 04:01:00,61.8,58.8,29.94,North,5,1.0,37.0,90,0.00,,,0.00,Wunderground v.1.15,2013-08-30 08:01:00,
2013-08-30 04:10:00,61.9,58.6,29.94,North,352,2.0,2.0,89,0.00,,,0.00,Wunderground v.1.15,2013-08-30 08:10:00,
2013-08-30 04:20:00,61.9,58.6,29.93,North,8,2.0,2.0,89,0.00,,,0.00,Wunderground v.1.15,2013-08-30 08:20:00,
2013-08-30 04:31:00,61.9,58.6,29.93,NNE,20,1.0,37.0,89,0.00,,,0.00,Wunderground v.1.15,2013-08-30 08:31:00,
2013-08-30 04:40:00,61.8,58.5,29.93,NNE,27,1.0,37.0,89,0.00,,,0.00,Wunderground v.1.15,2013-08-30 08:40:00,
2013-08-30 04:50:00,61.9,58.9,29.93,North,6,2.0,2.0,90,0.00,,,0.00,Wunderground v.1.15,2013-08-30 08:50:00,
2013-08-30 05:00:00,61.8,58.8,29.93,NNW,335,1.0,1.0,90,0.00,,,0.00,Wunderground v.1.15,2013-08-30 09:00:00,
2013-08-30 05:10:00,61.6,58.9,29.93,North,5,1.0,1.0,91,0.00,,,0.00,Wunderground v.1.15,2013-08-30 09:10:00,
2013-08-30 05:20:00,61.6,58.9,29.93,NNE,12,1.0,1.0,91,0.00,,,0.00,Wunderground v.1.15,2013-08-30 09:20:00,
2013-08-30 05:30:00,61.6,58.9,29.93,North,4,1.0,1.0,91,0.00,,,0.00,Wunderground v.1.15,2013-08-30 09:30:00,
2013-08-30 05:40:00,61.6,59.3,29.93,NNW,333,0.0,37.0,92,0.00,,,0.00,Wunderground v.1.15,2013-08-30 09:40:00,
2013-08-30 05:50:00,61.5,59.2,29.94,NNW,343,0.0,37.0,92,0.00,,,0.00,Wunderground v.1.15,2013-08-30 09:50:00,
2013-08-30 06:00:00,61.5,59.5,29.94,NNW,338,0.0,37.0,93,0.00,,,0.00,Wunderground v.1.15,2013-08-30 10:00:00,
2013-08-30 06:10:00,61.4,59.4,29.95,NNW,340,0.0,37.0,93,0.00,,,0.00,Wunderground v.1.15,2013-08-30 10:10:00,
2013-08-30 06:20:00,61.4,59.4,29.95,NNW,333,0.0,37.0,93,0.00,,,0.00,Wunderground v.1.15,2013-08-30 10:20:00,
2013-08-30 06:30:00,61.4,59.7,29.95,WNW,301,0.0,37.0,94,0.00,,,0.00,Wunderground v.1.15,2013-08-30 10:30:00,
2013-08-30 06:40:00,61.5,59.8,29.95,NW,309,0.0,37.0,94,0.00,,,0.00,Wunderground v.1.15,2013-08-30 10:40:00,
2013-08-30 06:50:00,61.7,60.0,29.95,NW,315,0.0,37.0,94,0.00,,,0.00,Wunderground v.1.15,2013-08-30 10:50:00,
2013-08-30 07:00:00,61.9,59.9,29.95,NW,307,0.0,37.0,93,0.00,,,0.00,Wunderground v.1.15,2013-08-30 11:00:00,
2013-08-30 07:10:00,62.2,60.2,29.95,NW,313,0.0,37.0,93,0.00,,,0.00,Wunderground v.1.15,2013-08-30 11:10:00,
2013-08-30 07:20:00,62.5,60.4,29.96,WNW,297,1.0,1.0,93,0.00,,,0.00,Wunderground v.1.15,2013-08-30 11:20:00,
2013-08-30 07:30:00,62.8,60.7,29.95,NW,309,1.0,1.0,93,0.00,,,0.00,Wunderground v.1.15,2013-08-30 11:30:00,
2013-08-30 07:40:00,63.1,60.7,29.95,NNW,330,1.0,1.0,92,0.00,,,0.00,Wunderground v.1.15,2013-08-30 11:40:00,
2013-08-30 07:50:00,63.3,60.9,29.95,North,9,1.0,1.0,92,0.00,,,0.00,Wunderground v.1.15,2013-08-30 11:50:00,
2013-08-30 08:00:00,63.6,61.2,29.95,WNW,288,1.0,1.0,92,0.00,,,0.00,Wunderground v.1.15,2013-08-30 12:00:00,
2013-08-30 08:10:00,63.7,61.3,29.94,WNW,299,0.0,37.0,92,0.00,,,0.00,Wunderground v.1.15,2013-08-30 12:10:00,
2013-08-30 08:20:00,63.8,61.1,29.95,NNW,330,0.0,37.0,91,0.00,,,0.00,Wunderground v.1.15,2013-08-30 12:20:00,
2013-08-30 08:30:00,63.9,61.2,29.95,NNW,343,1.0,37.0,91,0.00,,,0.00,Wunderground v.1.15,2013-08-30 12:30:00,
2013-08-30 08:40:00,64.1,61.4,29.95,NW,315,1.0,37.0,91,0.00,,,0.00,Wunderground v.1.15,2013-08-30 12:40:00,
2013-08-30 08:50:00,64.2,61.2,29.95,WNW,285,2.0,2.0,90,0.00,,,0.00,Wunderground v.1.15,2013-08-30 12:50:00,
2013-08-30 09:00:00,64.5,61.5,29.95,WNW,287,3.0,3.0,90,0.00,,,0.00,Wunderground v.1.15,2013-08-30 13:00:00,
2013-08-30 09:10:00,64.6,61.6,29.95,WNW,283,1.0,1.0,90,0.00,,,0.00,Wunderground v.1.15,2013-08-30 13:10:00,
2013-08-30 09:20:00,64.7,61.1,29.95,WNW,286,4.0,37.0,88,0.00,,,0.00,Wunderground v.1.15,2013-08-30 13:20:00,
2013-08-30 09:30:00,65.2,61.2,29.94,West,264,3.0,3.0,87,0.00,,,0.00,Wunderground v.1.15,2013-08-30 13:30:00,
2013-08-30 09:40:00,66.0,61.7,29.95,WNW,300,3.0,37.0,86,0.00,,,0.00,Wunderground v.1.15,2013-08-30 13:40:00,
2013-08-30 09:50:00,66.7,62.0,29.94,WSW,240,4.0,4.0,85,0.00,,,0.00,Wunderground v.1.15,2013-08-30 13:50:00,
2013-08-30 10:00:00,66.4,61.4,29.94,WNW,301,5.0,37.0,84,0.00,,,0.00,Wunderground v.1.15,2013-08-30 14:00:00,
2013-08-30 10:10:00,65.8,61.2,29.95,WSW,250,5.0,37.0,85,0.00,,,0.00,Wunderground v.1.15,2013-08-30 14:10:00,
2013-08-30 10:20:00,66.1,61.5,29.94,WNW,284,4.0,37.0,85,0.00,,,0.00,Wunderground v.1.15,2013-08-30 14:20:00,
2013-08-30 10:30:00,66.2,61.6,29.94,WNW,300,4.0,37.0,85,0.00,,,0.00,Wunderground v.1.15,2013-08-30 14:30:00,
2013-08-30 10:40:00,66.3,61.7,29.94,WNW,294,5.0,5.0,85,0.00,,,0.00,Wunderground v.1.15,2013-08-30 14:40:00,
2013-08-30 10:50:00,66.6,61.9,29.94,SW,224,5.0,5.0,85,0.00,,,0.00,Wunderground v.1.15,2013-08-30 14:50:00,
2013-08-30 11:00:00,66.7,62.0,29.94,West,260,4.0,37.0,85,0.00,,,0.00,Wunderground v.1.15,2013-08-30 15:00:00,
2013-08-30 11:10:00,67.5,62.5,29.94,SSW,205,2.0,2.0,84,0.00,,,0.00,Wunderground v.1.15,2013-08-30 15:10:00,
2013-08-30 11:20:00,67.8,62.8,29.93,WNW,291,3.0,37.0,84,0.00,,,0.00,Wunderground v.1.15,2013-08-30 15:20:00,
2013-08-30 11:30:00,68.0,63.3,29.93,WSW,243,4.0,4.0,85,0.00,,,0.00,Wunderground v.1.15,2013-08-30 15:30:00,
2013-08-30 11:40:00,69.2,63.8,29.93,SW,236,4.0,4.0,83,0.00,,,0.00,Wunderground v.1.15,2013-08-30 15:40:00,
2013-08-30 11:50:00,68.9,62.8,29.92,WNW,289,6.0,6.0,81,0.00,,,0.00,Wunderground v.1.15,2013-08-30 15:50:00,
2013-08-30 12:00:00,69.0,63.6,29.92,WNW,293,5.0,5.0,83,0.00,,,0.00,Wunderground v.1.15,2013-08-30 16:00:00,
2013-08-30 12:10:00,69.0,64.0,29.92,WSW,240,4.0,4.0,84,0.00,,,0.00,Wunderground v.1.15,2013-08-30 16:10:00,
2013-08-30 12:20:00,69.2,64.2,29.91,West,259,4.0,37.0,84,0.00,,,0.00,Wunderground v.1.15,2013-08-30 16:20:00,
2013-08-30 12:30:00,69.1,64.1,29.90,West,270,6.0,6.0,84,0.00,,,0.00,Wunderground v.1.15,2013-08-30 16:30:00,
2013-08-30 12:40:00,69.3,64.3,29.90,WSW,238,6.0,37.0,84,0.00,,,0.00,Wunderground v.1.15,2013-08-30 16:40:00,
2013-08-30 12:50:00,69.0,64.3,29.90,WSW,238,6.0,6.0,85,0.00,,,0.00,Wunderground v.1.15,2013-08-30 16:50:00,
2013-08-30 13:00:00,68.4,64.4,29.90,WNW,288,8.0,37.0,87,0.00,,,0.00,Wunderground v.1.15,2013-08-30 17:00:00,
2013-08-30 13:10:00,68.3,64.3,29.90,WSW,239,8.0,37.0,87,0.00,,,0.00,Wunderground v.1.15,2013-08-30 17:10:00,
2013-08-30 13:20:00,68.7,64.7,29.89,WSW,243,6.0,6.0,87,0.00,,,0.00,Wunderground v.1.15,2013-08-30 17:20:00,
2013-08-30 13:30:00,68.4,64.4,29.89,WSW,249,8.0,37.0,87,0.00,,,0.00,Wunderground v.1.15,2013-08-30 17:30:00,
2013-08-30 13:40:00,68.3,64.6,29.88,WSW,256,8.0,8.0,88,0.00,,,0.00,Wunderground v.1.15,2013-08-30 17:40:00,
2013-08-30 13:50:00,68.2,64.5,29.88,West,262,8.0,8.0,88,0.00,,,0.00,Wunderground v.1.15,2013-08-30 17:50:00,
2013-08-30 14:00:00,68.7,65.0,29.87,West,270,8.0,8.0,88,0.00,,,0.00,Wunderground v.1.15,2013-08-30 18:00:00,
2013-08-30 14:10:00,68.8,64.8,29.87,SW,225,9.0,37.0,87,0.00,,,0.00,Wunderground v.1.15,2013-08-30 18:10:00,
2013-08-30 14:20:00,68.9,65.2,29.86,WSW,243,8.0,8.0,88,0.00,,,0.00,Wunderground v.1.15,2013-08-30 18:20:00,
2013-08-30 14:30:00,69.2,65.5,29.86,West,280,7.0,37.0,88,0.00,,,0.00,Wunderground v.1.15,2013-08-30 18:30:00,
2013-08-30 14:40:00,69.1,65.4,29.87,SW,233,8.0,37.0,88,0.00,,,0.00,Wunderground v.1.15,2013-08-30 18:40:00,
2013-08-30 14:50:00,69.5,65.8,29.86,South,184,8.0,8.0,88,0.00,,,0.00,Wunderground v.1.15,2013-08-30 18:50:00,
2013-08-30 15:00:00,69.7,65.7,29.86,WSW,238,9.0,37.0,87,0.00,,,0.00,Wunderground v.1.15,2013-08-30 19:00:00,
2013-08-30 15:10:00,69.5,65.5,29.86,SW,215,9.0,37.0,87,0.00,,,0.00,Wunderground v.1.15,2013-08-30 19:10:00,
2013-08-30 15:20:00,69.7,65.7,29.86,WSW,249,10.0,37.0,87,0.00,,,0.00,Wunderground v.1.15,2013-08-30 19:20:00,
2013-08-30 15:30:00,70.6,66.5,29.86,SSW,204,9.0,9.0,87,0.00,,,0.00,Wunderground v.1.15,2013-08-30 19:30:00,
2013-08-30 15:40:00,70.9,66.5,29.85,WSW,253,9.0,37.0,86,0.00,,,0.00,Wunderground v.1.15,2013-08-30 19:40:00,
2013-08-30 15:50:00,70.8,66.1,29.85,WSW,253,9.0,9.0,85,0.00,,,0.00,Wunderground v.1.15,2013-08-30 19:50:00,
2013-08-30 16:00:00,70.5,66.4,29.85,SW,224,11.0,11.0,87,0.00,,,0.00,Wunderground v.1.15,2013-08-30 20:00:00,
2013-08-30 16:10:00,71.6,67.2,29.85,WSW,248,7.0,37.0,86,0.00,,,0.00,Wunderground v.1.15,2013-08-30 20:10:00,
2013-08-30 16:20:00,71.7,66.9,29.85,SSW,210,9.0,37.0,85,0.00,,,0.00,Wunderground v.1.15,2013-08-30 20:20:00,
2013-08-30 16:30:00,71.5,67.1,29.85,WSW,248,9.0,37.0,86,0.00,,,0.00,Wunderground v.1.15,2013-08-30 20:30:00,
2013-08-30 16:40:00,71.7,67.3,29.85,West,270,8.0,37.0,86,0.00,,,0.00,Wunderground v.1.15,2013-08-30 20:40:00,
2013-08-30 16:50:00,71.5,67.4,29.85,West,264,9.0,9.0,87,0.00,,,0.00,Wunderground v.1.15,2013-08-30 20:50:00,
2013-08-30 17:00:00,71.8,67.7,29.85,SW,219,8.0,37.0,87,0.00,,,0.00,Wunderground v.1.15,2013-08-30 21:00:00,
2013-08-30 17:10:00,72.2,67.8,29.84,WSW,243,7.0,7.0,86,0.00,,,0.00,Wunderground v.1.15,2013-08-30 21:10:00,
2013-08-30 17:20:00,71.9,67.5,29.85,SW,229,9.0,9.0,86,0.00,,,0.00,Wunderground v.1.15,2013-08-30 21:20:00,
2013-08-30 17:30:00,72.2,68.1,29.84,WSW,256,6.0,37.0,87,0.00,,,0.00,Wunderground v.1.15,2013-08-30 21:30:00,
2013-08-30 17:40:00,71.8,68.1,29.84,WSW,238,9.0,9.0,88,0.00,,,0.00,Wunderground v.1.15,2013-08-30 21:40:00,
2013-08-30 17:50:00,71.8,68.1,29.84,WSW,252,6.0,37.0,88,0.00,,,0.00,Wunderground v.1.15,2013-08-30 21:50:00,
2013-08-30 18:00:00,71.6,67.9,29.84,WSW,243,8.0,37.0,88,0.00,,,0.00,Wunderground v.1.15,2013-08-30 22:00:00,
2013-08-30 18:10:00,71.7,68.0,29.84,West,264,5.0,5.0,88,0.00,,,0.00,Wunderground v.1.15,2013-08-30 22:10:00,
2013-08-30 18:20:00,71.5,68.1,29.84,West,266,6.0,37.0,89,0.00,,,0.00,Wunderground v.1.15,2013-08-30 22:20:00,
2013-08-30 18:30:00,71.2,68.1,29.84,SW,233,7.0,7.0,90,0.00,,,0.00,Wunderground v.1.15,2013-08-30 22:30:00,
2013-08-30 18:40:00,70.8,68.0,29.85,West,274,5.0,37.0,91,0.00,,,0.00,Wunderground v.1.15,2013-08-30 22:40:00,
2013-08-30 18:50:00,70.1,67.7,29.85,West,276,8.0,8.0,92,0.00,,,0.00,Wunderground v.1.15,2013-08-30 22:50:00,
2013-08-30 19:00:00,69.7,67.6,29.84,WNW,297,7.0,37.0,93,0.00,,,0.00,Wunderground v.1.15,2013-08-30 23:00:00,
2013-08-30 19:10:00,69.3,67.5,29.84,West,268,6.0,6.0,94,0.00,,,0.00,Wunderground v.1.15,2013-08-30 23:10:00,
2013-08-30 19:20:00,69.0,67.2,29.84,West,261,7.0,37.0,94,0.00,,,0.00,Wunderground v.1.15,2013-08-30 23:20:00,
2013-08-30 19:30:00,68.9,67.4,29.84,WSW,247,6.0,6.0,95,0.00,,,0.00,Wunderground v.1.15,2013-08-30 23:30:00,
2013-08-30 19:40:00,68.7,67.2,29.84,SW,233,7.0,37.0,95,0.00,,,0.00,Wunderground v.1.15,2013-08-30 23:40:00,
2013-08-30 19:50:00,68.7,67.2,29.84,WSW,255,7.0,37.0,95,0.00,,,0.00,Wunderground v.1.15,2013-08-30 23:50:00,
2013-08-30 20:00:00,68.7,67.2,29.84,SW,236,6.0,37.0,95,0.00,,,0.00,Wunderground v.1.15,2013-08-31 00:00:00,
2013-08-30 20:10:00,68.8,67.3,29.85,West,276,7.0,7.0,95,0.00,,,0.00,Wunderground v.1.15,2013-08-31 00:10:00,
2013-08-30 20:20:00,68.7,67.2,29.85,WSW,243,6.0,6.0,95,0.00,,,0.00,Wunderground v.1.15,2013-08-31 00:20:00,
2013-08-30 20:30:00,68.7,67.5,29.85,WSW,247,6.0,37.0,96,0.00,,,0.00,Wunderground v.1.15,2013-08-31 00:30:00,
2013-08-30 20:40:00,68.6,67.4,29.85,WSW,240,4.0,4.0,96,0.00,,,0.00,Wunderground v.1.15,2013-08-31 00:40:00,
2013-08-30 20:50:00,68.6,67.4,29.85,SW,235,4.0,37.0,96,0.00,,,0.00,Wunderground v.1.15,2013-08-31 00:50:00,
2013-08-30 21:00:00,68.7,67.5,29.85,SW,233,5.0,37.0,96,0.00,,,0.00,Wunderground v.1.15,2013-08-31 01:00:00,
2013-08-30 21:10:00,68.7,67.5,29.85,SW,226,4.0,4.0,96,0.00,,,0.00,Wunderground v.1.15,2013-08-31 01:10:00,
2013-08-30 21:20:00,68.8,67.6,29.85,SW,232,3.0,37.0,96,0.00,,,0.00,Wunderground v.1.15,2013-08-31 01:20:00,
2013-08-30 21:30:00,68.9,67.7,29.84,WSW,240,4.0,37.0,96,0.00,,,0.00,Wunderground v.1.15,2013-08-31 01:30:00,
2013-08-30 21:40:00,68.9,67.7,29.84,SW,225,5.0,37.0,96,0.00,,,0.00,Wunderground v.1.15,2013-08-31 01:40:00,
2013-08-30 21:50:00,68.9,67.7,29.85,SW,224,5.0,5.0,96,0.00,,,0.00,Wunderground v.1.15,2013-08-31 01:50:00,
2013-08-30 22:00:00,68.8,67.6,29.84,SW,214,4.0,4.0,96,0.00,,,0.00,Wunderground v.1.15,2013-08-31 02:00:00,
2013-08-30 22:10:00,68.8,67.9,29.84,WSW,242,5.0,5.0,97,0.00,,,0.00,Wunderground v.1.15,2013-08-31 02:10:00,
2013-08-30 22:20:00,68.9,68.0,29.84,SE,142,5.0,5.0,97,0.00,,,0.00,Wunderground v.1.15,2013-08-31 02:20:00,
2013-08-30 22:30:00,69.0,68.1,29.84,WSW,253,6.0,37.0,97,0.00,,,0.00,Wunderground v.1.15,2013-08-31 02:30:00,
2013-08-30 22:40:00,69.2,68.0,29.85,West,266,6.0,37.0,96,0.00,,,0.00,Wunderground v.1.15,2013-08-31 02:40:00,
2013-08-30 22:50:00,69.3,68.1,29.85,West,273,6.0,6.0,96,0.00,,,0.00,Wunderground v.1.15,2013-08-31 02:50:00,
2013-08-30 23:01:00,69.2,68.0,29.85,SW,226,7.0,7.0,96,0.00,,,0.00,Wunderground v.1.15,2013-08-31 03:01:00,
2013-08-30 23:10:00,69.3,68.1,29.85,WSW,249,8.0,37.0,96,0.00,,,0.00,Wunderground v.1.15,2013-08-31 03:10:00,
2013-08-30 23:21:00,69.3,68.1,29.85,WSW,256,6.0,37.0,96,0.00,,,0.00,Wunderground v.1.15,2013-08-31 03:21:00,
2013-08-30 23:31:00,69.3,68.1,29.85,WSW,248,7.0,7.0,96,0.00,,,0.00,Wunderground v.1.15,2013-08-31 03:31:00,
2013-08-30 23:40:00,69.4,68.2,29.85,WSW,257,6.0,6.0,96,0.00,,,0.00,Wunderground v.1.15,2013-08-31 03:40:00,
2013-08-30 23:50:00,69.3,68.1,29.84,WSW,240,7.0,37.0,96,0.00,,,0.00,Wunderground v.1.15,2013-08-31 03:50:00,